Location: Carson
(33.8314°N, 118.2820°W)
Time: 13:13:18
(UTC+00:00)

Cosmos 1184 Rocket - Pass Details

Date: 23 November 2020
Orbit: 404 x 418 km, 81.2° (Epoch: 21 January)

Event Time Altitude Azimuth Distance (km) Brightness Sun altitude
Rises 13:29:52 0° 195° (SSW) 2,351 6.6 -13.2°
Reaches altitude 10° 13:31:55 10° 199° (SSW) 1,494 5.5 -12.8°
Maximum altitude 13:35:07 57° 279° (W) 502 2.8 -12.2°
Drops below altitude 10° 13:38:21 10° 359° (N) 1,508 5.4 -11.5°
Sets 13:40:25 0° 4° (N) 2,376 6.4 -11.1°
